This demonstration page uses our WeatherBlox Daily Observations layout. Learn more.

Left ArrowRight Arrow

53.62937, 11.41316

Hourly Observations for July 4, 2018

Temp ( °F °C ) Dew Point ( °F °C ) Humidity (%) Winds ( mph kmh ) Pressure ( in mb ) Visibility ( mi km ) Precip ( " mm )
5:50 am 05:50 Partly Cloudy with Fog 50 10 50 10 100 100 VRB 1 2 30.00 1016 30 48 N/A
6:20 am 06:20 Mostly Sunny 52 11 52 11 100 100 VRB 1 2 30.00 1016 7 11 N/A
6:50 am 06:50 Mostly Sunny 54 12 54 12 100 100 WSW 3 6 30.00 1016 7 11 N/A
7:20 am 07:20 Mostly Sunny 55 13 55 13 100 100 VRB 2 4 30.00 1016 7 11 N/A
7:50 am 07:50 Mostly Sunny 59 15 55 13 88 88 SW 3 6 30.00 1016 7 11 N/A
8:20 am 08:20 Mostly Sunny 61 16 54 12 77 77 WSW 5 7 30.00 1016 7 11 N/A
8:50 am 08:50 Mostly Sunny 61 16 54 12 77 77 WSW 5 7 30.00 1016 30 48 N/A
9:20 am 09:20 Mostly Sunny 63 17 54 12 73 73 WSW 5 7 30.00 1016 7 11 N/A
9:50 am 09:50 Mostly Sunny 64 18 52 11 64 64 WNW 3 6 29.97 1015 7 11 N/A
10:20 am 10:20 Mostly Sunny 64 18 52 11 64 64 SW 6 9 29.97 1015 7 11 N/A
10:50 am 10:50 Mostly Sunny 68 20 54 12 60 60 VRB 5 7 29.97 1015 7 11 N/A
11:20 am 11:20 Mostly Sunny 70 21 52 11 53 53 VRB 5 7 29.97 1015 7 11 N/A
11:50 am 11:50 Mostly Sunny 72 22 50 10 47 47 VRB 6 9 29.97 1015 7 11 N/A
12:20 pm 12:20 Mostly Sunny 73 23 50 10 44 44 VRB 7 11 29.97 1015 7 11 N/A
12:50 pm 12:50 Mostly Sunny 73 23 46 8 38 38 SW 8 13 29.94 1014 7 11 N/A
1:20 pm 13:20 Mostly Sunny 75 24 46 8 36 36 SSW 7 11 29.94 1014 7 11 N/A
1:50 pm 13:50 Mostly Sunny 77 25 46 8 34 34 VRB 7 11 29.94 1014 7 11 N/A
2:20 pm 14:20 Mostly Sunny 77 25 45 7 32 32 VRB 5 7 29.94 1014 7 11 N/A
2:50 pm 14:50 Mostly Sunny 77 25 43 6 30 30 SW 6 9 29.94 1014 7 11 N/A
3:20 pm 15:20 Mostly Sunny 79 26 45 7 30 30 WSW 7 11 29.94 1014 7 11 N/A
3:50 pm 15:50 Mostly Sunny 79 26 45 7 30 30 S 8 13 29.91 1013 7 11 N/A
4:20 pm 16:20 Mostly Sunny 81 27 45 7 28 28 VRB 5 7 29.91 1013 7 11 N/A
4:50 pm 16:50 Mostly Sunny 81 27 45 7 28 28 WSW 5 7 29.91 1013 7 11 N/A
5:20 pm 17:20 Mostly Sunny 79 26 43 6 28 28 WSW 8 13 29.91 1013 7 11 N/A
5:50 pm 17:50 Mostly Sunny 81 27 46 8 30 30 SW 7 11 29.91 1013 7 11 N/A
6:20 pm 18:20 Mostly Sunny 79 26 43 6 28 28 WSW 6 9 29.91 1013 7 11 N/A
6:50 pm 18:50 Mostly Sunny 81 27 45 7 28 28 SW 8 13 29.88 1012 7 11 N/A
7:20 pm 19:20 Mostly Sunny 79 26 48 9 34 34 VRB 5 7 29.88 1012 7 11 N/A
7:50 pm 19:50 Mostly Sunny 75 24 57 14 54 54 NNE 5 7 29.88 1012 7 11 N/A
8:20 pm 20:20 Mostly Sunny 72 22 57 14 61 61 VRB 2 4 29.88 1012 7 11 N/A
8:50 pm 20:50 Mostly Sunny 70 21 57 14 64 64 NNE 3 6 29.88 1012 7 11 N/A

Powered by AerisWeather